Previsão horária em Alicun

Hoje, 30 Novembro, Segunda-feira

Tempo Temperatura Precipitação Vento Pressão Humidade
00:00 +8°C° 0 mm 2 m/s 697 mmHg 76%
01:00 +8°C° 0 mm 2 m/s 697 mmHg 76%
02:00 +8°C° 0 mm 2 m/s 697 mmHg 76%
03:00 +7°C° 0 mm 2 m/s 697 mmHg 76%
04:00 +7°C° 0 mm 2 m/s 697 mmHg 76%
05:00 +7°C° 0 mm 2 m/s 697 mmHg 77%
06:00 +7°C° 0 mm 2 m/s 697 mmHg 76%
07:00 +8°C° 0 mm 2 m/s 698 mmHg 72%
08:00 +9°C° 0 mm 2 m/s 698 mmHg 68%
09:00 +10°C° 0 mm 2 m/s 699 mmHg 64%
10:00 +11°C° 0 mm 3 m/s 699 mmHg 61%
11:00 +13°C° 0 mm 3 m/s 699 mmHg 57%
12:00 +14°C° 0 mm 4 m/s 699 mmHg 55%
13:00 +14°C° 0 mm 4 m/s 699 mmHg 55%
14:00 +14°C° 0 mm 4 m/s 699 mmHg 56%
15:00 +14°C° 0 mm 4 m/s 698 mmHg 56%
16:00 +13°C° 0 mm 4 m/s 698 mmHg 63%
17:00 +12°C° 0 mm 4 m/s 698 mmHg 71%
18:00 +10°C° 0 mm 3 m/s 698 mmHg 79%
19:00 +10°C° 0 mm 3 m/s 699 mmHg 81%
20:00 +9°C° 0 mm 2 m/s 699 mmHg 83%
21:00 +9°C° 0 mm 2 m/s 699 mmHg 85%
22:00 +9°C° 0 mm 1 m/s 699 mmHg 86%
23:00 +9°C° 0 mm 1 m/s 699 mmHg 87%

Amanhã, 1 Dezembro, Terça-feira

Tempo Temperatura Precipitação Vento Pressão Humidade
00:00 +9°C° 0 mm 1 m/s 699 mmHg 88%
01:00 +7°C° 0 mm 0 m/s 699 mmHg 88%
02:00 +7°C° 0 mm 0 m/s 699 mmHg 88%
03:00 +7°C° 0 mm 0 m/s 698 mmHg 88%
04:00 +7°C° 0 mm 0 m/s 698 mmHg 88%
05:00 +6°C° 0 mm 0 m/s 698 mmHg 88%
06:00 +6°C° 0 mm 0 m/s 698 mmHg 88%
07:00 +8°C° 0 mm 0 m/s 698 mmHg 82%
08:00 +9°C° 0 mm 0 m/s 699 mmHg 75%
09:00 +12°C° 0 mm 1 m/s 699 mmHg 69%
10:00 +13°C° 0 mm 1 m/s 699 mmHg 63%
11:00 +14°C° 0 mm 1 m/s 699 mmHg 57%
12:00 +15°C° 0 mm 1 m/s 699 mmHg 51%
13:00 +15°C° 0 mm 2 m/s 699 mmHg 49%
14:00 +16°C° 0 mm 2 m/s 698 mmHg 48%
15:00 +16°C° 0 mm 3 m/s 698 mmHg 47%
16:00 +14°C° 0 mm 2 m/s 697 mmHg 55%
17:00 +12°C° 0 mm 2 m/s 697 mmHg 63%
18:00 +11°C° 0 mm 1 m/s 696 mmHg 71%
19:00 +10°C° 0 mm 1 m/s 696 mmHg 73%
20:00 +10°C° 0 mm 1 m/s 696 mmHg 75%
21:00 +9°C° 0 mm 1 m/s 696 mmHg 77%
22:00 +9°C° 0 mm 1 m/s 696 mmHg 78%
23:00 +8°C° 0 mm 1 m/s 696 mmHg 80%

Depois de amanhã, 2 Dezembro, Quarta-feira

Tempo Temperatura Precipitação Vento Pressão Humidade
00:00 +7°C° 0 mm 0 m/s 696 mmHg 82%
01:00 +6°C° 0 mm 0 m/s 695 mmHg 82%
02:00 +7°C° 0 mm 1 m/s 695 mmHg 82%
03:00 +7°C° 0 mm 1 m/s 694 mmHg 83%
04:00 +6°C° 0 mm 1 m/s 694 mmHg 82%
05:00 +6°C° 0 mm 1 m/s 694 mmHg 82%
06:00 +6°C° 0 mm 1 m/s 693 mmHg 81%
07:00 +7°C° 0 mm 1 m/s 694 mmHg 73%
08:00 +8°C° 0 mm 0 m/s 694 mmHg 65%
09:00 +9°C° 0 mm 0 m/s 694 mmHg 57%
10:00 +11°C° 0 mm 1 m/s 694 mmHg 52%
11:00 +13°C° 0 mm 1 m/s 694 mmHg 46%
12:00 +14°C° 0 mm 2 m/s 694 mmHg 41%
13:00 +14°C° 0 mm 2 m/s 694 mmHg 42%
14:00 +13°C° 0 mm 3 m/s 693 mmHg 43%
15:00 +13°C° 0 mm 3 m/s 693 mmHg 44%
16:00 +11°C° 0 mm 3 m/s 693 mmHg 52%
17:00 +10°C° 0 mm 3 m/s 694 mmHg 60%
18:00 +8°C° 0 mm 2 m/s 694 mmHg 68%
19:00 +8°C° 0 mm 2 m/s 694 mmHg 69%
20:00 +8°C° 0 mm 1 m/s 694 mmHg 70%
21:00 +7°C° 0 mm 1 m/s 695 mmHg 71%
22:00 +7°C° 0 mm 1 m/s 695 mmHg 71%
23:00 +5°C° 0 mm 0 m/s 695 mmHg 70%

3 Dezembro, Quinta-feira

Tempo Temperatura Precipitação Vento Pressão Humidade
00:00 +5°C° 0 mm 0 m/s 694 mmHg 70%
01:00 +4°C° 0 mm 0 m/s 694 mmHg 70%
02:00 +4°C° 0 mm 0 m/s 694 mmHg 70%
03:00 +5°C° 0 mm 1 m/s 694 mmHg 70%
04:00 +4°C° 0 mm 1 m/s 694 mmHg 72%
05:00 +4°C° 0 mm 1 m/s 693 mmHg 73%
06:00 +4°C° 0 mm 1 m/s 693 mmHg 74%
07:00 +5°C° 0 mm 1 m/s 693 mmHg 70%
08:00 +6°C° 0 mm 1 m/s 694 mmHg 65%
09:00 +7°C° 0 mm 1 m/s 694 mmHg 61%
10:00 +9°C° 0 mm 1 m/s 694 mmHg 58%
11:00 +9°C° 0 mm 2 m/s 694 mmHg 55%
12:00 +11°C° 0 mm 3 m/s 694 mmHg 52%
13:00 +11°C° 0 mm 3 m/s 693 mmHg 52%
14:00 +11°C° 0 mm 4 m/s 692 mmHg 53%
15:00 +10°C° 0 mm 5 m/s 692 mmHg 54%
16:00 +10°C° 0 mm 4 m/s 692 mmHg 61%
17:00 +9°C° 0 mm 3 m/s 691 mmHg 68%
18:00 +7°C° 0 mm 3 m/s 691 mmHg 74%
19:00 +7°C° 0 mm 3 m/s 691 mmHg 78%
20:00 +7°C° 0 mm 3 m/s 691 mmHg 81%
21:00 +5°C° 0 mm 3 m/s 691 mmHg 84%
22:00 +5°C° 0 mm 3 m/s 690 mmHg 85%
23:00 +5°C° 0 mm 4 m/s 690 mmHg 86%

4 Dezembro, Sexta-feira

Tempo Temperatura Precipitação Vento Pressão Humidade
00:00 +5°C° 0 mm 4 m/s 690 mmHg 86%
01:00 +5°C° 0 mm 4 m/s 690 mmHg 87%
02:00 +5°C° 0 mm 4 m/s 689 mmHg 87%
03:00 +3°C° 0 mm 5 m/s 689 mmHg 87%
04:00 +3°C° 0 mm 5 m/s 689 mmHg 87%
05:00 +3°C° 0 mm 5 m/s 689 mmHg 87%
06:00 +3°C° 0 mm 5 m/s 689 mmHg 87%
07:00 +3°C° 0 mm 6 m/s 689 mmHg 84%
08:00 +4°C° 0 mm 6 m/s 689 mmHg 80%
09:00 +5°C° 0 mm 7 m/s 689 mmHg 77%
10:00 +5°C° 0.1 mm 7 m/s 688 mmHg 78%
11:00 +5°C° 0.1 mm 8 m/s 687 mmHg 79%
12:00 +5°C° 0.1 mm 8 m/s 686 mmHg 80%
13:00 +6°C° 0.2 mm 9 m/s 686 mmHg 81%
14:00 +6°C° 0.2 mm 10 m/s 685 mmHg 83%
15:00 +6°C° 0.2 mm 10 m/s 684 mmHg 84%
16:00 +6°C° 1.3 mm 11 m/s 684 mmHg 83%
17:00 +4°C° 1.3 mm 12 m/s 685 mmHg 82%
18:00 +4°C° 1.3 mm 12 m/s 685 mmHg 82%
19:00 +3°C° 0.6 mm 11 m/s 685 mmHg 84%
20:00 +1°C° 0.6 mm 10 m/s 686 mmHg 85%
21:00 0°C° 0.6 mm 10 m/s 686 mmHg 87%
22:00 0°C° 0.1 mm 9 m/s 687 mmHg 87%
23:00 -1°C° 0.1 mm 8 m/s 687 mmHg 87%

5 Dezembro, Sábado

Tempo Temperatura Precipitação Vento Pressão Humidade
00:00 -1°C° 0.1 mm 7 m/s 687 mmHg 87%
01:00 -2°C° 0 mm 7 m/s 688 mmHg 87%
02:00 -2°C° 0 mm 6 m/s 688 mmHg 87%
03:00 -3°C° 0 mm 6 m/s 688 mmHg 87%
04:00 -2°C° 0.1 mm 6 m/s 688 mmHg 87%
05:00 -2°C° 0.1 mm 6 m/s 688 mmHg 88%
06:00 -1°C° 0.1 mm 7 m/s 689 mmHg 89%
07:00 -1°C° 0.1 mm 6 m/s 689 mmHg 85%
08:00 -1°C° 0.1 mm 6 m/s 689 mmHg 82%
09:00 +1°C° 0.1 mm 6 m/s 690 mmHg 78%
10:00 +1°C° 0.2 mm 6 m/s 690 mmHg 78%
11:00 0°C° 0.2 mm 7 m/s 690 mmHg 77%
12:00 +2°C° 0.2 mm 7 m/s 690 mmHg 77%
13:00 +1°C° 0.1 mm 8 m/s 690 mmHg 74%
14:00 +1°C° 0.1 mm 8 m/s 690 mmHg 70%
15:00 +2°C° 0.1 mm 9 m/s 690 mmHg 67%
16:00 +1°C° 0 mm 8 m/s 691 mmHg 70%
17:00 +1°C° 0 mm 6 m/s 691 mmHg 73%
18:00 0°C° 0 mm 5 m/s 692 mmHg 76%
19:00 0°C° 0 mm 5 m/s 692 mmHg 78%
20:00 0°C° 0 mm 5 m/s 693 mmHg 80%
21:00 0°C° 0 mm 4 m/s 693 mmHg 81%
22:00 0°C° 0 mm 4 m/s 693 mmHg 83%
23:00 0°C° 0 mm 4 m/s 694 mmHg 85%
Mostrar mais